Weather History for KRBO - January, 2013

Change the Weather History Date:

Friday, January 25, 2013

  Actual Average (KCRP) Record (KCRP)
Temperature  
Mean Temperature 70 °F 58 °F  
Max Temperature 84 °F 67 °F 87 °F (1965)
Min Temperature 55 °F 48 °F 23 °F (1897)
Degree Days  
Heating Degree Days 0 8  
Month to date heating degree days 223  
Since 1 July heating degree days 574  
Cooling Degree Days 4 1  
Month to date cooling degree days 25  
Year to date cooling degree days 25  
Growing Degree Days 20 (Base 50)    
Moisture  
Dew Point 62 °F    
Average Humidity 78    
Maximum Humidity 97    
Minimum Humidity 47    
Precipitation  
Precipitation 0.00 in 0.05 in 1.42 in (1889)
Month to date precipitation 1.25  
Year to date precipitation 1.25  
Snow  
Snow 0.00 in - - ()
Month to date snowfall  
Since 1 July snowfall  
Snow Depth -    
Sea Level Pressure  
Sea Level Pressure 30.10 in    
Wind  
Wind Speed 9 mph (SSE)    
Max Wind Speed 21 mph    
Max Gust Speed 26 mph    
Visibility 7 miles    
Events Fog    
T = Trace of Precipitation, MM = Missing Value Source: NWS Daily Summary

Daily Weather History Graph

Daily Weather History Graph

Search for Another Location

Airport or City:

Trip Planner

Search our weather history database for the weather conditions in past years. The results will help you decide how hot, cold, wet, or windy it might be!

Date:

Astronomy

Jan. 25, 2013 Rise Set
Actual Time 7:20 AM CST 6:06 PM CST
Civil Twilight 6:55 AM CST 6:30 PM CST
Nautical Twilight 6:27 AM CST 6:59 PM CST
Astronomical Twilight 5:59 AM CST 7:27 PM CST
Moon 5:04 PM CST (1/25) 6:00 AM CST (1/25)
Length of Visible Light 11h 35m
Length of Day
10h 45m
Waxing Gibbous, 98% of the Moon is Illuminated
Jan 25
Waxing Gibbous
Jan 26
Full
Feb 3
Last Quarter
Feb 10
New
Feb 17
First Quarter

Hourly Weather History & Observations

Time (CST) Temp. Heat Index Dew Point Humidity Pressure Visibility Wind Dir Wind Speed Gust Speed Precip Events Conditions
12:15 AM 61.9 °F - 60.1 °F 94% 30.18 in 10.0 mi South 4.6 mph - N/A   Clear
12:55 AM 61.7 °F - 60.3 °F 95% 30.17 in 5.0 mi SSE 6.9 mph - N/A   Clear
1:15 AM 61.3 °F - 59.9 °F 95% 30.16 in 5.0 mi SSE 6.9 mph - N/A   Clear
1:35 AM 61.2 °F - 59.9 °F 96% 30.16 in 4.0 mi South 6.9 mph - N/A   Clear
1:55 AM 61.2 °F - 59.9 °F 96% 30.15 in 3.0 mi SSE 8.1 mph - N/A   Clear
2:15 AM 61.5 °F - 60.3 °F 96% 30.14 in 4.0 mi SSE 8.1 mph - N/A   Clear
2:35 AM 60.8 °F - 59.5 °F 96% 30.14 in 0.5 mi SSE 5.8 mph - N/A Fog Fog
2:55 AM 60.4 °F - 59.4 °F 96% 30.13 in 0.8 mi SSE 8.1 mph - N/A   Overcast
3:15 AM 60.3 °F - 59.2 °F 96% 30.13 in 0.8 mi SSE 6.9 mph - N/A   Overcast
3:35 AM 60.3 °F - 59.2 °F 96% 30.12 in 0.5 mi SSE 5.8 mph - N/A Fog Fog
3:55 AM 59.9 °F - 58.6 °F 96% 30.12 in 0.8 mi SSE 5.8 mph - N/A   Overcast
4:15 AM 59.5 °F - 58.5 °F 96% 30.12 in 0.8 mi SE 4.6 mph - N/A   Mostly Cloudy
4:55 AM 58.1 °F - 57.0 °F 96% 30.11 in 0.5 mi Calm Calm - N/A Fog Fog
5:15 AM 56.8 °F - 55.8 °F 96% 30.11 in 0.2 mi SE 3.5 mph - N/A Fog Fog
5:35 AM 57.0 °F - 56.1 °F 97% 30.12 in 0.2 mi SSE 3.5 mph - N/A Fog Fog
5:55 AM 56.3 °F - 55.4 °F 97% 30.12 in 0.5 mi Calm Calm - N/A Fog Fog
6:15 AM 56.3 °F - 55.4 °F 97% 30.11 in 0.2 mi SSE 5.8 mph - N/A Fog Fog
6:35 AM 55.9 °F - 55.0 °F 97% 30.12 in 0.5 mi SE 5.8 mph - N/A Fog Fog
6:55 AM 55.9 °F - 55.0 °F 97% 30.12 in 0.2 mi SE 3.5 mph - N/A Fog Fog
7:15 AM 56.1 °F - 55.2 °F 97% 30.12 in 0.5 mi Calm Calm - N/A Fog Fog
7:35 AM 55.9 °F - 55.0 °F 97% 30.13 in 0.2 mi SE 3.5 mph - N/A Fog Fog
7:55 AM 55.9 °F - 55.0 °F 97% 30.13 in 0.2 mi SE 3.5 mph - N/A Fog Fog
8:15 AM 57.2 °F - 56.3 °F 97% 30.13 in 0.5 mi Calm Calm - N/A Fog Fog
8:35 AM 60.8 °F - 59.9 °F 97% 30.14 in 5.0 mi Calm Calm - N/A   Clear
8:55 AM 62.8 °F - 61.9 °F 97% 30.15 in 10.0 mi Calm Calm - N/A   Clear
9:15 AM 65.8 °F - 64.8 °F 96% 30.15 in 10.0 mi South 6.9 mph - N/A   Clear
9:35 AM 68.9 °F - 65.8 °F 90% 30.15 in 10.0 mi South 12.7 mph - N/A   Clear
9:55 AM 72.1 °F - 65.7 °F 80% 30.16 in 10.0 mi South 16.1 mph 19.6 mph N/A   Scattered Clouds
10:15 AM 75.2 °F - 65.5 °F 72% 30.16 in 10.0 mi South 16.1 mph - N/A   Scattered Clouds
10:35 AM 76.8 °F - 64.6 °F 66% 30.16 in 10.0 mi South 17.3 mph 23.0 mph N/A   Scattered Clouds
11:15 AM 78.6 °F - 63.9 °F 60% 30.16 in 10.0 mi South 17.3 mph - N/A   Clear
11:35 AM 79.5 °F - 63.7 °F 58% 30.15 in 10.0 mi South 17.3 mph - N/A   Scattered Clouds
11:55 AM 80.4 °F 81.8 °F 63.5 °F 56% 30.14 in 10.0 mi South 12.7 mph 18.4 mph N/A   Scattered Clouds
12:15 PM 81.5 °F 82.7 °F 62.8 °F 53% 30.13 in 10.0 mi South 12.7 mph 21.9 mph N/A   Clear
12:35 PM 82.4 °F 83.2 °F 61.9 °F 50% 30.11 in 10.0 mi South 16.1 mph 19.6 mph N/A   Clear
12:55 PM 82.9 °F 83.5 °F 61.3 °F 48% 30.10 in 10.0 mi South 15.0 mph 20.7 mph N/A   Clear
1:15 PM 83.8 °F 84.3 °F 61.5 °F 47% 30.08 in 10.0 mi SSE 15.0 mph 20.7 mph N/A   Clear
1:35 PM 84.4 °F 85.0 °F 62.1 °F 47% 30.07 in 10.0 mi SSE 12.7 mph 20.7 mph N/A   Clear
1:55 PM 83.7 °F 84.3 °F 62.1 °F 48% 30.07 in 10.0 mi SSE 12.7 mph 18.4 mph N/A   Clear
2:15 PM 84.2 °F 85.4 °F 63.5 °F 50% 30.06 in 10.0 mi South 15.0 mph 18.4 mph N/A   Clear
2:35 PM 84.0 °F 85.2 °F 63.5 °F 50% 30.06 in 10.0 mi South 13.8 mph 19.6 mph N/A   Clear
2:55 PM 83.5 °F 84.7 °F 63.5 °F 51% 30.05 in 10.0 mi SE 11.5 mph 19.6 mph N/A   Clear
3:15 PM 83.8 °F 85.1 °F 63.7 °F 51% 30.04 in 10.0 mi SE 16.1 mph 21.9 mph N/A   Clear
3:35 PM 83.3 °F 84.4 °F 63.5 °F 51% 30.04 in 10.0 mi SSE 17.3 mph 20.7 mph N/A   Clear
3:55 PM 82.4 °F 83.7 °F 63.5 °F 53% 30.04 in 10.0 mi SSE 17.3 mph - N/A   Clear
4:15 PM 81.5 °F 82.9 °F 63.7 °F 55% 30.04 in 10.0 mi SSE 16.1 mph 24.2 mph N/A   Clear
4:35 PM 80.6 °F 82.0 °F 63.5 °F 56% 30.04 in 10.0 mi SSE 19.6 mph - N/A   Clear
4:55 PM 79.3 °F - 63.5 °F 58% 30.04 in 10.0 mi SSE 17.3 mph 24.2 mph N/A   Clear
5:15 PM 77.4 °F - 63.5 °F 62% 30.05 in 10.0 mi SSE 19.6 mph 25.3 mph N/A   Clear
5:35 PM 76.3 °F - 63.5 °F 64% 30.05 in 10.0 mi SSE 20.7 mph - N/A   Clear
5:55 PM 74.7 °F - 63.1 °F 67% 30.06 in 10.0 mi SSE 19.6 mph 26.5 mph N/A   Clear
6:15 PM 73.8 °F - 63.1 °F 69% 30.06 in 10.0 mi SSE 19.6 mph 24.2 mph N/A   Clear
6:35 PM 72.7 °F - 63.5 °F 73% 30.06 in 10.0 mi SSE 19.6 mph - N/A   Clear
6:55 PM 72.1 °F - 63.7 °F 75% 30.06 in 10.0 mi SSE 18.4 mph - N/A   Clear
7:15 PM 71.6 °F - 63.7 °F 76% 30.07 in 10.0 mi SSE 17.3 mph - N/A   Clear
7:35 PM 70.7 °F - 63.5 °F 78% 30.07 in 10.0 mi SSE 16.1 mph - N/A   Clear
7:55 PM 70.3 °F - 63.9 °F 80% 30.07 in 10.0 mi SSE 17.3 mph 20.7 mph N/A   Clear
8:15 PM 70.2 °F - 63.9 °F 80% 30.07 in 10.0 mi SSE 16.1 mph - N/A   Clear
8:35 PM 70.0 °F - 64.0 °F 81% 30.07 in 10.0 mi SSE 18.4 mph - N/A   Clear
8:55 PM 69.8 °F - 64.0 °F 82% 30.08 in 10.0 mi SSE 16.1 mph 20.7 mph N/A   Clear
9:15 PM 69.4 °F - 64.0 °F 83% 30.08 in 10.0 mi SSE 16.1 mph - N/A   Clear
9:35 PM 69.1 °F - 64.0 °F 84% 30.08 in 10.0 mi SSE 15.0 mph - N/A   Clear
9:55 PM 68.9 °F - 64.0 °F 84% 30.09 in 10.0 mi SSE 13.8 mph - N/A   Clear
10:15 PM 68.9 °F - 63.9 °F 84% 30.10 in 10.0 mi SSE 13.8 mph - N/A   Clear
10:35 PM 68.7 °F - 63.7 °F 84% 30.11 in 10.0 mi SSE 13.8 mph - N/A   Clear
10:55 PM 68.4 °F - 64.0 °F 86% 30.11 in 10.0 mi SSE 10.4 mph - N/A   Clear
11:15 PM 67.6 °F - 63.7 °F 87% 30.12 in 10.0 mi SSE 9.2 mph - N/A   Clear
11:35 PM 67.1 °F - 63.7 °F 89% 30.12 in 10.0 mi SSE 9.2 mph - N/A   Clear
11:55 PM 66.6 °F - 63.5 °F 90% 30.11 in 10.0 mi SSE 9.2 mph - N/A   Clear